[Iaude] MPEC S207: 2023 SE6 [a=1.85,e=0.42,i=27.8,H=21.0]

mpec at marsden.cfa.harvard.edu mpec at marsden.cfa.harvard.edu
Mon Sep 25 09:56:11 EDT 2023


M.P.E.C. 2023-S207                           Issued 2023 September 25, 13:54 UT

     The Minor Planet Electronic Circulars contain information on unusual
         minor planets, routine data on comets and natural satellites,
         and occasional editorial announcements.  They are published
    on behalf of Division F of the International Astronomical Union by the
          Minor Planet Center, Smithsonian Astrophysical Observatory,
                          Cambridge, MA 02138, U.S.A.
			  
             Prepared using the Tamkin Foundation Computer Network

                              MPC at CFA.HARVARD.EDU
            URL https://www.minorplanetcenter.net/    ISSN 1523-6714

                                    2023 SE6                                    


Observations:
     K23S06E* C2023 09 18.25272718 41 43.521+52 48 54.39         22.45wXES207F52
     K23S06E  C2023 09 18.26556018 41 41.355+52 49 06.02         22.01wXES207F52
     K23S06E  C2023 09 18.27838318 41 39.283+52 49 17.88         21.78wXES207F52
     K23S06E  C2023 09 18.39512618 41 19.840+52 51 01.44         21.99GVES207F52
     K23S06E  C2023 09 18.39608318 41 19.694+52 51 02.46         21.99GVES207F52
     K23S06E 1C2023 09 19.80355 18 37 44.07 +53 12 34.0          21.1 VXES207033
     K23S06E 1C2023 09 19.80713 18 37 43.51 +53 12 36.8          21.3 VXES207033
     K23S06E 1C2023 09 19.81071 18 37 42.93 +53 12 40.1          21.3 VXES207033
     K23S06E 1C2023 09 20.84276 18 35 09.01 +53 27 53.9          22.2 VXES207033
     K23S06E 1C2023 09 20.84635 18 35 08.47 +53 27 56.7          22.2 VXES207033
     K23S06E 1C2023 09 20.84993 18 35 07.93 +53 28 00.1          21.8 VXES207033
     K23S06E KC2023 09 25.14417 18 25 15.69 +54 27 24.4          22.0 RoES207291
     K23S06E KC2023 09 25.15315 18 25 14.48 +54 27 31.1          22.3 RoES207291

Observer details:
033 Karl Schwarzschild Observatory, Tautenburg.  Observers S. Melnikov, C.
    Hogner, F. Ludwig, M. Hartmann, B. Stecklum.  Measurer B. Stecklum.
    1.34-m f/3 Schmidt + CCD.
291 LPL/Spacewatch II.  Observer M. T. Read.  1.8-m f/2.7 reflector + CCD.
F52 Pan-STARRS 2, Haleakala.  Observers J. Bulger, T. Lowe, P. Minguez, A.
    Schultz, I. Smith, K. Chambers, T. Dukes.  Measurers K. Chambers, T. de
    Boer, J. Bulger, J. Fairlamb, H. Gao, M. Huber, C.-C. Lin, T. Lowe, E.
    Magnier, P. Minguez, Y. Ramanjooloo, A. Schultz, I. Smith, R. Wainscoat,
    R. Weryk, S. Chastel.  1.8-m Ritchey-Chretien + CCD.

Orbital elements:
2023 SE6                                                 Earth MOID = 0.3049 AU
Epoch 2023 Sept. 13.0 TT = JDT 2460200.5                Bell                    
M 340.44840              (2000.0)            P               Q                  
n   0.39049423     Peri.  104.50601     +0.69877917     -0.56980986             
a   1.8537862      Node   292.12409     +0.32894607     +0.79280685             
e   0.4200206      Incl.   27.82912     +0.63521820     +0.21627302             
P   2.52           H   21.08          G   0.15           U   9                  
Residuals in seconds of arc
230918 F52  0.2-  0.1+    230919 033  0.0   0.1+    230920 033  0.1+  0.1+
230918 F52  0.2-  0.1-    230919 033  0.0   0.3-    230925 291  0.1-  0.0
230918 F52  0.7+  0.1-    230919 033  0.1-  0.1-    230925 291  0.1+  0.0
230918 F52  0.1-  0.0     230920 033  0.1-  0.0
230918 F52  0.0   0.1+    230920 033  0.0   0.2-

Ephemeris:
2023 SE6                 a,e,i = 1.85, 0.42, 28                  q = 1.0752
Date    TT    R. A. (2000) Decl.     Delta      r    Elong.  Phase     V
2023 08 26    19 58 17.5 +42 50 04   0.4502  1.2843   117.8    44.1    21.6
...
2023 09 10    19 05 45.6 +50 17 20   0.4752  1.2104   103.6    54.0    21.9
...
2023 09 18    18 42 24.0 +52 44 45   0.4907  1.1756    97.6    57.9    22.0
...
2023 09 24    18 27 47.1 +54 12 04   0.5009  1.1521    94.0    60.3    22.0
2023 09 25    18 25 35.3 +54 25 24   0.5023  1.1485    93.4    60.7    22.1
2023 09 26    18 23 27.3 +54 38 29   0.5037  1.1449    92.9    61.0    22.1
...
2023 10 02    18 11 57.5 +55 53 08   0.5106  1.1249    90.1    62.9    22.1
...
2023 10 10    17 59 45.0 +57 28 40   0.5146  1.1031    87.5    64.8    22.1
...
2023 10 25    17 44 37.9 +60 48 21   0.5036  1.0786    85.5    66.8    22.1

M. P. C. Staff               (C) Copyright 2023 MPC           M.P.E.C. 2023-S207





More information about the Iaude mailing list